Total_Precipitation_Accumulation
0.02 0.02 0.02 0.03 0.03 0.04 0.05 0.06 0.07 0.08 0.09 0.10 0.10 0.11 0.13 0.15 0.19 0.23 0.27 0.31 0.35 0.36 0.36 0.38 0.40 0.40 0.40 0.37 0.37 0.37 0.40 0.54 0.56 0.19 0.11 0.18 0.29 0.33 0.33 0.30 0.29 0.28 0.26
0.03 0.03 0.04 0.05 0.07 0.09 0.11 0.12 0.13 0.14 0.15 0.15 0.14 0.14 0.14 0.15 0.18 0.20 0.24 0.28 0.35 0.39 0.41 0.44 0.46 0.46 0.48 0.47 0.48 0.47 0.45 0.49 0.59 0.40 0.17 0.17 0.25 0.33 0.38 0.37 0.29 0.26 0.24
0.05 0.05 0.06 0.09 0.12 0.16 0.19 0.20 0.20 0.20 0.20 0.19 0.20 0.20 0.21 0.24 0.28 0.29 0.28 0.30 0.33 0.36 0.38 0.44 0.49 0.54 0.58 0.56 0.56 0.55 0.50 0.45 0.48 0.49 0.30 0.21 0.24 0.31 0.36 0.39 0.36 0.33 0.28
0.09 0.12 0.14 0.18 0.22 0.25 0.26 0.25 0.24 0.23 0.24 0.24 0.25 0.26 0.30 0.38 0.52 0.56 0.45 0.41 0.38 0.38 0.38 0.42 0.48 0.57 0.64 0.70 0.75 0.67 0.59 0.61 0.59 0.57 0.44 0.33 0.30 0.32 0.43 0.47 0.45 0.42 0.41
0.20 0.23 0.24 0.22 0.22 0.22 0.22 0.23 0.24 0.25 0.27 0.26 0.25 0.27 0.33 0.47 0.79 0.83 0.66 0.53 0.47 0.44 0.42 0.44 0.48 0.60 0.78 0.95 1.06 1.00 0.94 0.95 0.87 0.83 0.70 0.53 0.44 0.47 0.54 0.54 0.57 0.51 0.50
0.27 0.27 0.25 0.23 0.22 0.22 0.22 0.23 0.24 0.24 0.22 0.19 0.18 0.22 0.31 0.48 0.87 0.94 0.76 0.54 0.48 0.48 0.48 0.44 0.42 0.49 0.57 0.72 0.93 1.00 1.05 1.12 1.14 1.10 1.01 0.86 0.62 0.55 0.60 0.73 0.83 0.82 0.71
0.28 0.28 0.27 0.25 0.24 0.22 0.21 0.19 0.18 0.17 0.14 0.11 0.10 0.12 0.19 0.36 0.74 0.83 0.70 0.47 0.38 0.40 0.40 0.36 0.35 0.35 0.38 0.38 0.48 0.55 0.64 0.78 0.98 1.13 1.22 1.01 0.78 0.69 0.81 0.98 1.02 1.00 0.81
0.25 0.23 0.19 0.17 0.16 0.15 0.15 0.14 0.12 0.11 0.09 0.07 0.06 0.06 0.08 0.17 0.51 0.74 0.60 0.33 0.28 0.31 0.31 0.34 0.36 0.34 0.33 0.39 0.46 0.47 0.44 0.48 0.67 0.90 1.05 0.96 0.88 0.87 1.01 1.24 1.38 1.44 1.16
0.15 0.12 0.09 0.07 0.08 0.09 0.09 0.08 0.07 0.06 0.05 0.04 0.04 0.04 0.05 0.08 0.31 0.66 0.63 0.29 0.27 0.26 0.28 0.38 0.43 0.40 0.39 0.51 0.64 0.62 0.46 0.38 0.44 0.72 0.98 1.02 1.06 1.24 1.43 1.75 2.00 2.06 1.79
0.07 0.05 0.03 0.02 0.03 0.04 0.04 0.04 0.04 0.04 0.04 0.03 0.03 0.03 0.04 0.05 0.19 0.55 0.76 0.39 0.31 0.26 0.28 0.38 0.58 0.57 0.54 0.58 0.66 0.67 0.61 0.41 0.37 0.42 0.51 0.62 0.69 0.76 1.04 1.41 1.63 1.80 1.79
0.02 0.01 0.01 0.01 0.01 0.02 0.02 0.02 0.03 0.04 0.04 0.04 0.04 0.03 0.03 0.04 0.09 0.35 0.77 0.66 0.46 0.38 0.37 0.44 0.56 0.55 0.55 0.56 0.62 0.63 0.62 0.58 0.56 0.55 0.49 0.44 0.47 0.58 0.73 1.00 1.23 1.43 1.60
0.00 0.01 0.01 0.01 0.01 0.02 0.02 0.03 0.03 0.04 0.05 0.05 0.06 0.05 0.04 0.04 0.08 0.23 0.53 0.69 0.61 0.45 0.42 0.37 0.44 0.47 0.52 0.55 0.53 0.54 0.57 0.62 0.60 0.51 0.42 0.35 0.35 0.43 0.54 0.72 0.96 1.11 1.21
0.01 0.01 0.01 0.01 0.02 0.02 0.03 0.04 0.05 0.05 0.08 0.10 0.10 0.09 0.07 0.06 0.09 0.22 0.33 0.38 0.46 0.41 0.44 0.57 0.51 0.44 0.41 0.35 0.31 0.37 0.40 0.41 0.46 0.43 0.34 0.25 0.24 0.29 0.38 0.52 0.69 0.87 0.99
0.01 0.01 0.02 0.02 0.02 0.03 0.03 0.04 0.06 0.09 0.20 0.28 0.24 0.20 0.14 0.11 0.19 0.36 0.39 0.30 0.34 0.37 0.36 0.43 0.42 0.32 0.24 0.18 0.16 0.18 0.21 0.28 0.36 0.39 0.30 0.22 0.19 0.24 0.32 0.42 0.59 0.75 0.94
0.02 0.02 0.03 0.03 0.03 0.04 0.04 0.05 0.08 0.10 0.27 0.47 0.42 0.40 0.38 0.36 0.45 0.69 0.67 0.57 0.57 0.57 0.57 0.54 0.43 0.31 0.26 0.21 0.16 0.13 0.15 0.21 0.28 0.29 0.28 0.26 0.24 0.25 0.27 0.34 0.53 0.71 0.89
0.04 0.04 0.05 0.05 0.05 0.06 0.07 0.07 0.08 0.10 0.16 0.20 0.24 0.35 0.34 0.45 0.57 0.56 0.53 0.52 0.53 0.55 0.60 0.57 0.38 0.28 0.25 0.22 0.20 0.17 0.15 0.16 0.18 0.23 0.27 0.27 0.28 0.29 0.29 0.32 0.48 0.66 0.76
0.06 0.07 0.09 0.08 0.08 0.10 0.11 0.13 0.12 0.09 0.08 0.09 0.11 0.19 0.28 0.38 0.43 0.42 0.44 0.39 0.36 0.37 0.43 0.34 0.24 0.21 0.19 0.18 0.18 0.18 0.16 0.12 0.16 0.22 0.26 0.27 0.30 0.34 0.35 0.38 0.45 0.57 0.67
0.07 0.09 0.11 0.10 0.11 0.13 0.15 0.16 0.17 0.17 0.14 0.08 0.07 0.11 0.18 0.26 0.31 0.33 0.35 0.33 0.26 0.21 0.22 0.22 0.20 0.18 0.18 0.19 0.18 0.18 0.17 0.16 0.18 0.22 0.24 0.25 0.31 0.40 0.42 0.40 0.44 0.57 0.67
0.08 0.09 0.12 0.13 0.14 0.14 0.16 0.16 0.16 0.16 0.16 0.12 0.10 0.11 0.14 0.17 0.19 0.19 0.22 0.25 0.24 0.19 0.17 0.17 0.18 0.20 0.21 0.21 0.19 0.19 0.20 0.20 0.18 0.21 0.23 0.24 0.29 0.40 0.42 0.37 0.41 0.52 0.73
0.08 0.11 0.15 0.15 0.15 0.15 0.16 0.18 0.19 0.20 0.20 0.18 0.17 0.18 0.23 0.28 0.26 0.19 0.18 0.21 0.22 0.21 0.20 0.21 0.19 0.20 0.22 0.23 0.23 0.22 0.22 0.20 0.18 0.21 0.23 0.24 0.29 0.38 0.42 0.39 0.45 0.56 0.66
0.11 0.12 0.15 0.16 0.16 0.17 0.20 0.24 0.26 0.28 0.29 0.25 0.19 0.18 0.41 0.51 0.37 0.24 0.21 0.21 0.25 0.27 0.27 0.26 0.23 0.21 0.21 0.24 0.26 0.24 0.23 0.20 0.18 0.22 0.25 0.26 0.30 0.38 0.39 0.43 0.48 0.54 0.63
0.15 0.17 0.18 0.19 0.19 0.20 0.25 0.27 0.29 0.31 0.29 0.26 0.20 0.17 0.24 0.26 0.23 0.21 0.20 0.20 0.22 0.26 0.29 0.34 0.30 0.24 0.25 0.30 0.32 0.32 0.27 0.21 0.19 0.24 0.29 0.29 0.32 0.37 0.41 0.46 0.50 0.57 0.65
0.20 0.22 0.21 0.19 0.19 0.23 0.24 0.23 0.26 0.29 0.28 0.26 0.24 0.22 0.20 0.21 0.22 0.23 0.23 0.23 0.25 0.27 0.28 0.33 0.34 0.27 0.23 0.27 0.31 0.38 0.40 0.31 0.27 0.34 0.43 0.42 0.39 0.40 0.45 0.50 0.52 0.59 0.65
0.25 0.25 0.25 0.24 0.23 0.25 0.27 0.27 0.26 0.27 0.28 0.28 0.26 0.24 0.22 0.22 0.22 0.21 0.21 0.22 0.26 0.27 0.29 0.33 0.34 0.30 0.27 0.28 0.31 0.33 0.35 0.40 0.53 0.60 0.58 0.59 0.53 0.47 0.49 0.54 0.54 0.56 0.63
0.26 0.27 0.28 0.28 0.29 0.30 0.31 0.29 0.27 0.28 0.29 0.29 0.28 0.26 0.23 0.23 0.22 0.21 0.21 0.23 0.27 0.28 0.26 0.28 0.31 0.31 0.28 0.27 0.27 0.29 0.33 0.46 0.65 0.89 1.05 1.01 0.80 0.61 0.58 0.60 0.59 0.60 0.65
0.24 0.24 0.26 0.27 0.30 0.33 0.36 0.36 0.32 0.32 0.35 0.33 0.30 0.29 0.29 0.28 0.26 0.24 0.26 0.31 0.35 0.34 0.30 0.28 0.27 0.27 0.28 0.28 0.26 0.28 0.39 0.60 0.77 0.99 1.34 1.48 1.16 0.82 0.69 0.72 0.67 0.68 0.72